Temp
58 49 44 50 52 55 53 51 50 56 61 55 54 55 60 62 63 65 67 64 65 66 70 71 68 68 67 67 67 66 68 66 68 69 68 67 68 70 73 70 73 77 78 77
51 45 57 59 59 56 54 51 50 55 60 56 55 54 61 62 62 62 62 62 64 62 66 66 65 67 66 65 65 65 67 66 66 67 68 68 68 69 70 70 71 71 73 76
48 54 63 61 57 55 54 50 50 51 57 56 53 51 55 62 62 65 65 66 64 65 64 62 65 64 64 64 64 64 64 65 65 66 67 68 68 69 68 68 68 72 71 74
52 62 60 57 55 56 46 54 53 53 49 42 53 39 49 54 56 61 62 61 62 63 63 63 66 63 64 64 64 64 64 64 65 64 63 64 65 65 67 68 71 70 73 73
53 55 54 53 56 57 51 56 51 51 46 41 45 36 48 51 52 56 59 62 63 65 64 64 66 66 62 63 62 62 62 62 63 63 62 62 62 63 66 65 66 68 72 71
57 63 59 58 60 58 58 50 47 45 41 34 45 39 45 48 53 54 59 64 65 66 62 64 64 65 62 62 61 61 62 62 62 62 62 61 61 61 62 62 63 65 69 71
55 56 61 61 51 53 50 40 31 27 30 35 46 40 46 54 57 59 59 60 64 68 59 63 64 64 64 61 60 61 61 60 61 62 62 61 61 61 62 62 62 62 64 66
40 39 52 57 49 43 41 39 27 22 23 32 42 36 45 54 58 62 62 60 61 64 63 64 64 66 66 63 62 62 60 60 61 62 62 61 61 61 61 62 63 63 62 64
39 42 56 59 54 52 41 37 44 35 33 29 32 41 51 58 57 60 61 61 61 58 62 63 65 65 61 61 61 61 60 61 62 62 62 61 61 60 60 61 61 62 63 66
46 37 52 55 54 52 45 47 33 33 19 26 32 36 38 46 47 52 53 56 59 61 61 60 62 62 60 61 61 60 61 62 63 62 61 63 63 62 62 61 61 62 64 66
47 39 42 47 44 40 39 37 36 34 29 21 25 30 46 44 48 48 54 56 56 61 61 62 62 62 62 61 61 62 62 63 61 62 61 61 61 63 63 62 63 63 63 65
47 38 32 40 48 51 44 39 36 27 28 33 30 32 53 52 53 51 51 59 59 60 61 60 61 60 59 60 59 59 64 63 63 63 62 61 62 60 60 61 62 62 63 63
46 35 28 32 38 42 41 43 42 39 32 28 22 29 52 52 52 54 53 57 60 62 61 58 59 57 59 59 61 63 62 61 61 62 61 59 60 61 60 61 61 61 62 62
51 37 33 27 34 37 35 40 42 37 26 28 32 37 45 49 47 51 52 53 59 61 59 63 57 53 54 59 61 61 60 61 61 61 59 59 60 59 59 60 60 61 62 62
43 34 37 40 43 44 43 43 44 38 39 32 40 39 43 44 44 46 49 51 54 55 60 62 56 53 54 55 58 60 63 62 62 62 60 59 58 59 59 59 59 60 60 61
41 33 36 36 44 43 41 43 44 44 45 44 42 39 45 48 48 48 48 49 50 50 54 55 57 57 56 58 56 60 60 61 60 58 58 59 59 59 58 58 58 58 58 58
37 32 30 27 40 39 32 40 41 42 41 39 32 40 43 43 47 46 46 48 49 50 52 52 52 55 55 55 57 56 58 61 60 60 60 60 59 59 58 58 57 56 55 56
36 33 29 27 31 22 38 47 46 43 43 44 43 43 46 46 47 49 49 46 48 50 51 52 51 51 54 57 56 57 59 60 57 57 60 59 59 58 57 56 55 53 53 53
42 32 26 22 20 34 41 43 41 39 39 44 42 44 46 47 47 48 51 51 49 49 51 52 53 53 53 53 55 55 55 55 56 58 58 59 58 56 55 54 54 54 53 57
41 39 31 25 24 21 37 45 48 46 33 43 42 40 40 40 35 41 47 48 49 51 51 51 51 50 49 50 51 51 52 54 56 58 58 59 58 56 54 53 52 53 55 57
35 35 31 28 25 31 43 46 48 30 31 43 43 41 39 37 41 44 47 47 48 49 50 50 50 51 51 52 52 51 52 52 55 57 57 56 54 54 53 52 51 52 53 55
31 31 31 32 29 27 44 43 34 38 41 41 41 41 40 42 44 46 47 46 47 47 48 50 49 50 51 51 50 49 50 54 55 54 55 54 52 54 57 52 53 53 53 52
32 36 33 33 28 39 41 42 43 42 39 40 40 42 44 43 43 45 44 45 45 46 48 47 49 50 51 52 53 50 50 53 54 53 53 53 55 54 54 52 54 54 51 50
41 42 33 31 40 39 42 43 45 45 43 43 45 45 43 39 41 41 41 43 44 45 46 48 48 47 47 50 52 53 54 56 55 53 53 53 51 51 52 54 52 50 51 51
37 38 32 33 38 41 43 44 44 43 45 44 45 45 43 41 40 39 40 40 43 44 44 46 46 45 46 50 51 53 53 53 52 52 52 52 52 52 53 52 52 52 55 54
39 36 34 32 39 38 39 43 44 42 43 44 42 42 42 41 40 40 38 39 41 41 43 43 44 45 47 49 50 51 53 54 52 51 51 51 50 51 51 51 52 46 46 46
MSLP
1009.28 1010.32 1010.59 1010.31 1010.43 1010.43 1010.47 1010.19 1009.41 1008.08 1007.34 1007.07 1006.80 1006.33 1005.17 1004.85 1004.43 1003.65 1003.05 1003.14 1003.01 1003.07 1003.11 1002.85 1003.19 1003.79 1004.69 1004.84 1004.96 1005.22 1005.48 1006.18 1006.41 1006.82 1007.62 1007.97 1007.87 1007.91 1007.44 1006.97 1009.02 1009.27 1008.24 1009.29
1010.13 1010.16 1009.54 1009.40 1009.56 1009.77 1009.69 1009.45 1008.77 1007.54 1006.84 1006.77 1006.34 1005.95 1004.85 1004.33 1004.01 1003.41 1002.93 1002.97 1002.67 1002.74 1003.23 1003.23 1003.24 1003.76 1004.10 1004.56 1004.92 1005.33 1005.72 1006.28 1006.58 1006.81 1007.16 1007.41 1007.64 1007.84 1008.01 1007.79 1007.69 1009.22 1008.64 1009.30
1009.82 1009.08 1008.58 1008.80 1008.77 1008.91 1008.80 1008.79 1008.28 1007.54 1006.90 1006.51 1006.55 1006.08 1005.15 1003.90 1003.68 1002.99 1002.48 1002.22 1002.36 1002.58 1003.21 1003.55 1003.53 1003.61 1003.97 1004.47 1004.67 1005.06 1005.49 1005.90 1006.19 1006.59 1007.01 1007.29 1007.39 1007.54 1007.77 1008.15 1007.28 1007.28 1008.21 1009.07
1008.95 1007.95 1008.15 1008.00 1008.14 1008.21 1008.44 1008.52 1008.45 1008.07 1007.73 1007.22 1006.92 1006.27 1005.55 1004.36 1003.68 1003.17 1002.41 1002.51 1002.29 1002.37 1002.47 1003.12 1003.34 1003.67 1003.53 1003.83 1004.29 1004.73 1005.23 1005.65 1005.85 1006.07 1006.76 1007.37 1007.61 1007.87 1007.66 1007.55 1007.03 1007.09 1007.31 1007.73
1007.40 1007.36 1007.38 1007.57 1007.58 1007.91 1008.22 1008.41 1008.91 1008.89 1008.81 1008.39 1007.26 1007.25 1004.97 1004.81 1003.96 1003.38 1002.85 1002.19 1001.81 1001.62 1001.75 1002.16 1002.69 1002.82 1003.36 1003.60 1004.39 1004.79 1005.34 1005.63 1005.71 1005.95 1006.38 1006.87 1007.41 1007.67 1007.65 1007.67 1007.86 1007.39 1007.13 1007.15
1006.93 1006.47 1006.81 1006.64 1007.16 1007.63 1008.27 1008.83 1009.14 1009.35 1009.83 1009.21 1008.23 1008.10 1005.75 1004.38 1003.43 1002.97 1002.45 1002.02 1001.52 1001.40 1001.20 1001.66 1001.85 1002.26 1003.01 1003.50 1004.32 1004.92 1005.24 1005.48 1005.69 1005.91 1006.31 1006.85 1007.19 1007.47 1007.78 1007.82 1007.87 1007.65 1007.33 1006.91
1006.86 1006.77 1006.36 1006.81 1007.41 1008.21 1008.75 1010.11 1011.02 1010.64 1010.47 1008.88 1008.39 1008.12 1005.09 1003.54 1003.31 1002.67 1002.11 1001.73 1001.07 1000.45 1000.73 1001.03 1001.75 1002.27 1002.71 1003.41 1004.15 1004.61 1005.09 1005.54 1005.69 1005.95 1006.30 1006.58 1006.89 1007.27 1007.72 1007.89 1007.95 1008.15 1008.11 1007.47
1007.71 1007.26 1006.68 1007.23 1008.13 1009.21 1010.25 1011.55 1013.01 1012.09 1011.82 1010.26 1009.41 1007.46 1004.00 1003.52 1002.89 1002.11 1001.70 1001.39 1000.69 999.90 999.87 1000.46 1001.08 1001.39 1002.04 1002.88 1003.63 1004.13 1004.81 1005.31 1005.47 1005.63 1005.99 1006.27 1006.62 1006.97 1007.33 1007.43 1007.64 1007.64 1007.79 1007.51
1007.75 1007.48 1007.14 1007.36 1008.17 1009.11 1010.53 1011.51 1011.76 1012.55 1012.60 1012.03 1010.03 1007.32 1004.70 1003.43 1002.87 1002.07 1001.30 1001.08 1000.99 1000.64 999.94 1000.30 1001.31 1001.59 1002.20 1002.73 1003.18 1003.53 1004.27 1004.82 1005.13 1005.10 1005.49 1005.91 1006.21 1006.53 1006.78 1007.00 1007.13 1007.20 1007.31 1007.23
1008.07 1008.40 1008.14 1008.34 1008.57 1009.21 1010.16 1011.09 1012.36 1013.28 1013.29 1011.93 1009.97 1007.93 1005.83 1004.36 1003.85 1003.14 1002.19 1001.94 1001.66 1001.85 1001.35 1001.35 1001.61 1001.94 1002.22 1002.23 1002.50 1002.99 1003.38 1004.03 1004.27 1004.58 1005.02 1005.34 1005.53 1005.81 1006.13 1006.45 1006.66 1006.69 1006.61 1006.51
1008.41 1009.35 1009.59 1009.25 1009.38 1009.87 1010.73 1011.53 1012.79 1013.34 1013.23 1012.31 1010.45 1008.25 1006.13 1005.17 1004.65 1003.61 1002.85 1002.23 1002.43 1002.44 1002.70 1002.34 1001.98 1001.68 1001.55 1001.86 1002.19 1002.57 1003.09 1003.51 1003.87 1004.09 1004.51 1004.84 1005.13 1005.33 1005.50 1005.81 1005.94 1006.10 1006.06 1005.93
1008.53 1009.50 1010.25 1010.17 1009.80 1009.83 1010.33 1011.19 1012.16 1012.90 1013.10 1012.29 1011.39 1008.67 1005.90 1005.36 1005.05 1004.29 1003.28 1002.29 1002.66 1002.87 1002.91 1003.01 1002.84 1002.58 1001.85 1001.69 1002.00 1002.49 1002.71 1003.22 1003.37 1003.47 1003.82 1004.30 1004.74 1005.09 1005.42 1005.60 1005.57 1005.75 1005.87 1005.76
1008.88 1010.07 1011.10 1011.08 1010.90 1010.62 1010.59 1010.88 1011.17 1011.82 1012.47 1011.84 1011.02 1008.14 1005.85 1005.44 1004.64 1004.22 1003.62 1002.63 1002.37 1003.36 1002.99 1003.37 1003.28 1003.05 1002.64 1002.39 1001.74 1001.99 1002.25 1002.59 1002.74 1003.16 1003.64 1003.94 1004.26 1004.75 1004.97 1005.17 1005.12 1005.19 1005.32 1005.53
1008.84 1010.08 1010.85 1011.16 1010.85 1010.58 1010.56 1010.32 1010.41 1010.86 1011.36 1010.29 1009.35 1007.65 1006.57 1005.75 1005.29 1004.52 1003.79 1003.30 1002.46 1002.15 1003.11 1003.00 1003.43 1003.56 1003.21 1002.53 1002.37 1002.07 1001.83 1001.97 1002.41 1002.98 1003.47 1003.71 1003.75 1003.94 1004.27 1004.54 1004.71 1004.92 1005.05 1005.26
1009.98 1010.59 1010.85 1010.66 1010.35 1010.06 1009.69 1009.33 1009.23 1009.39 1009.04 1009.15 1007.91 1007.39 1006.84 1006.70 1006.34 1005.18 1004.36 1003.82 1003.24 1002.97 1002.61 1002.75 1004.11 1003.88 1003.07 1003.13 1002.29 1002.53 1002.45 1002.79 1002.58 1002.52 1002.87 1003.14 1003.35 1003.63 1003.87 1004.05 1004.14 1004.20 1004.28 1004.41
1010.58 1011.12 1011.25 1011.01 1010.52 1009.95 1009.21 1008.66 1008.20 1007.69 1007.51 1007.32 1007.45 1007.27 1007.39 1006.99 1006.70 1005.79 1005.15 1004.80 1004.19 1003.96 1003.51 1003.53 1003.69 1003.99 1003.09 1003.13 1002.79 1002.07 1002.51 1002.64 1002.89 1003.24 1003.01 1003.22 1003.41 1003.74 1003.95 1004.07 1004.15 1004.28 1004.42 1004.51
1011.23 1011.74 1012.09 1011.33 1010.75 1009.98 1008.89 1008.12 1007.69 1007.19 1007.34 1007.66 1007.91 1008.24 1008.00 1007.59 1006.87 1005.95 1005.53 1005.09 1004.65 1004.39 1004.61 1004.53 1004.21 1004.17 1003.54 1003.07 1002.77 1002.78 1002.62 1002.15 1002.45 1002.91 1003.11 1002.92 1003.15 1003.38 1003.57 1003.78 1003.91 1003.99 1004.08 1004.12
1011.01 1011.96 1012.52 1012.19 1011.32 1010.33 1008.86 1008.08 1007.54 1007.49 1007.70 1007.91 1008.21 1008.24 1007.77 1007.23 1006.60 1005.99 1005.60 1005.18 1004.98 1004.76 1004.50 1004.01 1003.80 1003.97 1003.45 1003.01 1002.85 1002.57 1002.28 1002.11 1002.07 1002.25 1002.47 1002.49 1002.73 1002.82 1002.96 1003.18 1003.51 1003.71 1003.80 1003.77
1010.35 1011.72 1012.61 1012.79 1012.32 1010.49 1008.67 1008.69 1008.55 1008.46 1008.19 1008.27 1008.43 1008.34 1008.09 1007.71 1007.07 1006.20 1005.48 1005.09 1005.04 1004.76 1004.39 1003.89 1003.41 1003.12 1003.01 1002.78 1002.67 1002.53 1002.25 1001.87 1001.69 1001.82 1001.81 1001.93 1002.19 1002.26 1002.37 1002.51 1002.72 1002.90 1003.09 1003.10
1010.31 1011.01 1012.13 1012.78 1012.44 1010.95 1009.33 1009.10 1008.77 1008.31 1008.30 1008.39 1008.55 1008.51 1008.39 1008.04 1007.04 1005.88 1005.56 1005.18 1004.81 1004.46 1004.03 1003.54 1003.27 1002.95 1002.38 1002.13 1002.25 1002.38 1002.01 1001.65 1001.09 1000.96 1000.86 1000.98 1001.13 1001.21 1001.44 1001.66 1001.93 1002.13 1002.31 1002.07
1011.17 1011.80 1012.05 1012.22 1011.77 1010.55 1009.68 1009.05 1008.55 1008.83 1009.11 1008.47 1008.69 1008.61 1008.22 1007.83 1007.24 1005.99 1005.56 1004.90 1004.67 1004.16 1003.45 1002.94 1002.54 1002.12 1001.74 1001.56 1001.65 1001.20 1000.93 1000.44 1000.45 1000.21 1000.17 1000.14 1000.21 1000.40 1000.59 1000.85 1001.13 1001.40 1001.51 1001.39
1011.26 1011.68 1011.61 1011.68 1011.47 1010.57 1009.92 1009.59 1009.98 1009.72 1009.18 1008.92 1008.63 1008.13 1007.45 1006.63 1005.86 1005.27 1004.68 1004.30 1003.86 1003.08 1002.55 1002.21 1001.63 1001.00 1000.73 1000.87 1000.87 999.99 999.45 998.93 998.99 999.14 999.25 999.37 999.49 999.63 999.92 1000.17 1000.27 1000.53 1000.62 1000.59
1011.32 1011.59 1011.72 1011.88 1010.81 1009.99 1009.92 1009.93 1009.59 1009.54 1009.31 1008.75 1008.33 1007.53 1006.72 1005.73 1005.08 1004.40 1003.91 1003.42 1002.69 1002.02 1001.27 1000.95 1000.39 999.63 999.62 999.64 999.35 998.74 998.37 998.46 998.29 998.18 998.08 998.19 998.43 998.67 998.88 999.09 999.21 999.44 999.64 999.60
1011.42 1011.30 1011.71 1011.81 1010.34 1010.11 1009.63 1009.39 1009.24 1009.06 1008.67 1008.05 1007.52 1006.73 1005.93 1005.50 1004.56 1003.66 1003.19 1002.40 1001.25 1000.74 1000.06 999.81 999.01 998.60 998.47 998.42 997.85 997.41 997.29 997.13 996.83 996.88 997.03 997.19 997.47 997.60 997.79 997.94 998.19 998.45 998.50 998.37
1011.92 1011.86 1012.28 1011.76 1010.77 1010.26 1009.23 1009.12 1009.07 1008.44 1007.81 1007.01 1006.37 1005.70 1005.06 1004.36 1003.16 1002.57 1001.81 1001.23 1000.23 999.63 999.03 998.62 997.95 997.51 997.23 996.93 996.44 996.35 996.37 996.30 996.13 996.11 996.07 996.08 996.18 996.41 996.57 996.77 996.99 997.01 996.83 996.93
1011.93 1012.11 1012.52 1011.81 1011.15 1011.10 1009.73 1009.08 1008.66 1007.94 1006.92 1005.97 1005.38 1004.48 1004.08 1003.33 1001.90 1001.11 1000.50 1000.03 999.47 998.62 998.15 997.55 996.99 996.42 995.98 995.73 995.45 995.44 995.37 995.09 995.07 995.04 995.05 995.11 995.28 995.40 995.63 995.71 995.60 995.48 995.61 995.63
Wind_Speed
4 3 6 12 10 13 8 12 16 16 9 3 7 8 13 8 8 15 16 9 9 9 10 9 9 10 8 6 8 8 9 6 3 2 3 2 3 3 4 7 3 8 11 13
5 7 15 10 11 11 13 16 16 10 6 4 9 11 15 9 8 8 9 8 8 4 7 6 11 11 10 10 8 8 8 8 5 2 1 2 2 2 3 3 8 7 2 7
9 12 10 10 12 13 11 7 7 11 6 4 6 10 12 15 6 9 8 8 6 10 10 7 12 12 11 10 10 9 8 7 5 5 3 2 2 1 1 4 3 8 11 8
8 13 11 10 7 4 5 5 13 13 7 11 6 14 9 8 8 8 8 8 8 8 7 8 14 11 14 10 7 8 8 8 5 6 4 3 2 3 4 2 3 4 9 11
13 6 8 7 10 2 6 3 4 7 12 4 6 2 12 4 10 10 10 9 9 10 9 15 16 16 8 9 8 8 7 6 4 5 5 4 2 3 3 2 5 5 6 7
13 7 6 10 2 5 3 1 3 2 3 8 14 5 14 10 11 6 6 12 12 11 10 12 12 14 9 8 9 8 9 6 5 5 4 5 4 3 2 2 4 4 5 6
9 11 10 3 1 5 9 7 6 5 3 14 12 7 17 11 9 13 14 10 16 17 9 16 18 14 14 12 10 9 9 7 7 7 4 5 6 6 6 6 4 5 4 2
5 4 1 3 4 5 3 6 5 6 5 9 6 10 19 5 10 14 7 7 10 17 15 18 17 15 15 13 11 10 9 6 8 7 7 6 7 4 5 6 5 4 4 4
1 2 3 1 5 6 3 5 4 3 3 4 6 9 15 19 13 8 8 7 16 8 9 15 12 13 10 11 11 11 9 7 8 8 7 7 6 6 6 8 6 4 5 5
2 4 3 4 3 3 3 2 1 1 3 6 5 5 9 7 8 8 8 8 13 11 5 5 7 8 8 8 8 9 10 11 11 9 7 7 7 7 6 5 6 6 6 5
4 4 4 2 1 2 1 0 4 1 3 4 5 5 5 2 5 3 3 5 6 9 7 2 6 7 9 8 8 10 10 11 10 10 8 8 6 7 7 6 6 6 3 4
5 6 3 7 6 4 3 5 5 4 3 4 2 9 14 9 9 6 2 5 4 1 3 4 8 7 4 8 7 9 12 10 10 8 7 8 7 5 4 5 5 3 3 2
6 1 2 7 6 3 3 5 7 2 3 6 4 7 4 8 12 12 7 7 5 6 7 1 5 6 6 7 9 12 10 10 8 7 7 6 7 7 6 5 3 1 1 3
6 4 8 7 8 5 5 6 9 9 5 5 9 15 14 12 12 12 12 5 10 17 20 18 3 5 6 4 3 4 6 7 7 7 7 8 8 8 7 6 5 4 3 4
3 4 5 6 8 10 12 13 12 10 15 8 15 10 2 7 7 6 7 11 6 4 4 6 1 7 5 6 6 5 5 6 3 8 8 8 7 7 7 7 6 4 3 4
3 4 2 4 6 7 11 13 16 17 17 14 7 5 7 7 7 6 7 7 5 4 4 3 3 5 1 2 5 3 1 1 3 2 5 5 6 5 5 5 5 5 5 6
2 2 3 5 3 7 7 3 6 7 7 4 3 6 6 6 6 7 5 4 5 5 4 4 4 5 6 5 2 4 7 4 4 5 6 5 6 6 7 6 6 7 7 6
5 2 3 4 4 2 4 7 3 7 9 6 4 3 7 9 6 9 5 3 4 6 6 8 5 6 8 6 6 7 7 7 7 7 7 6 6 7 6 6 6 6 5 7
8 5 1 2 2 7 4 8 8 7 4 6 5 7 7 10 13 9 6 1 6 8 9 9 8 7 5 5 7 7 8 7 8 12 10 10 9 8 8 8 7 7 7 10
6 4 5 2 3 5 0 7 12 7 7 5 4 7 9 10 10 10 5 13 16 15 11 9 8 6 7 7 4 7 9 11 13 13 13 12 11 9 8 7 7 7 9 13
2 1 4 5 4 7 4 9 12 2 5 12 11 11 10 13 13 15 16 15 14 15 17 11 12 14 14 11 12 17 16 16 11 11 11 10 9 10 9 8 7 8 10 12
5 2 2 2 3 6 4 3 1 4 9 9 13 14 18 18 18 18 18 15 16 19 20 20 17 20 14 13 15 18 19 15 13 11 10 10 8 9 9 10 10 12 13 14
3 3 3 5 7 2 2 8 1 4 9 14 16 18 19 21 21 19 18 23 21 22 21 16 20 16 15 16 16 16 15 15 15 13 13 12 12 11 11 11 13 11 11 11
1 2 1 5 1 3 15 5 5 11 14 16 17 21 16 22 23 22 21 22 22 18 18 17 18 16 18 16 18 17 16 17 16 14 11 10 10 11 10 10 9 10 11 11
3 3 3 6 7 14 8 10 14 18 19 19 19 18 20 24 24 21 21 19 19 17 16 16 17 15 17 16 15 13 14 13 12 12 12 12 11 11 11 11 11 11 13 13
2 2 2 5 9 9 16 16 20 21 22 16 20 18 20 22 25 21 19 16 19 16 17 16 17 17 17 16 16 15 15 14 12 11 11 10 9 9 8 8 10 16 18 16
Wind_Direction
275 76 240 240 218 237 245 259 264 273 262 273 244 262 284 273 285 263 237 214 251 242 212 188 158 139 127 134 132 137 130 132 116 117 145 169 230 253 205 140 199 243 191 208
354 248 248 241 252 241 248 251 260 262 252 250 288 277 283 284 260 232 223 216 216 214 165 183 147 150 161 156 144 133 135 139 130 137 158 148 166 209 277 194 149 222 215 233
203 238 257 251 256 260 259 239 262 262 264 270 329 294 292 291 255 255 225 224 204 197 197 190 165 169 158 161 164 154 147 136 130 127 128 124 94 357 96 252 199 189 183 220
235 251 254 281 286 282 293 352 7 326 299 275 163 270 276 272 295 286 280 295 257 223 190 182 177 176 171 172 152 150 151 149 157 140 115 145 175 198 214 238 290 188 180 171
233 225 250 270 267 86 251 347 3 344 326 291 248 198 268 331 293 278 287 297 289 286 225 187 190 177 169 137 153 157 153 154 159 150 146 154 196 232 291 276 243 249 239 203
245 245 199 244 268 185 274 338 360 9 64 276 295 204 268 251 256 266 262 287 286 281 228 193 173 149 154 149 156 158 157 167 166 160 167 179 202 241 283 272 286 243 243 214
266 265 266 105 34 13 48 46 334 334 291 261 259 260 249 270 263 242 259 298 295 293 192 165 158 161 158 161 157 157 161 173 175 173 189 202 213 207 232 237 226 239 272 247
198 304 76 134 124 150 124 139 176 240 253 283 10 251 255 282 291 263 257 261 318 277 170 161 163 159 164 165 164 160 164 175 181 180 207 208 218 203 210 221 225 231 240 245
50 239 6 283 159 137 143 181 173 220 325 286 233 276 277 273 283 264 233 36 342 346 150 149 163 173 170 168 173 169 164 182 195 197 204 208 208 208 215 227 220 221 228 237
264 310 311 58 94 261 149 154 197 288 261 256 268 261 255 0 354 11 352 34 28 338 103 135 159 177 183 180 172 167 169 186 201 199 196 212 213 214 218 225 243 240 253 249
157 154 259 49 273 173 251 75 30 190 181 221 268 267 323 319 279 74 28 10 36 17 332 232 175 186 178 178 173 185 187 190 198 187 193 204 211 218 218 212 230 232 248 272
187 153 200 225 251 188 140 166 161 153 260 231 231 241 258 244 289 298 337 158 202 144 64 29 8 335 219 189 183 188 197 198 203 202 195 195 207 220 204 214 195 213 256 319
182 193 30 337 352 329 223 194 184 151 81 212 169 262 279 314 302 283 228 218 187 240 293 321 7 9 353 282 188 194 197 202 199 191 205 211 189 184 197 201 183 173 326 311
111 156 166 210 220 195 249 242 200 179 179 222 221 273 301 318 335 329 310 278 213 188 210 251 29 1 345 348 351 282 201 187 175 169 180 182 187 191 191 202 200 203 227 253
85 210 222 236 250 271 282 281 276 232 239 220 269 252 15 335 291 326 347 327 287 16 345 282 185 305 49 348 62 66 61 353 260 185 186 194 191 185 186 196 208 235 276 271
6 276 321 234 249 279 291 289 279 269 264 241 245 267 23 302 292 321 341 324 6 32 63 64 335 268 295 328 338 23 135 184 59 288 174 182 170 179 198 216 230 236 245 248
208 151 13 269 309 307 299 308 279 290 56 345 46 7 327 277 308 309 329 343 347 354 296 264 268 276 252 247 246 296 296 295 242 223 236 217 211 214 218 224 230 236 240 244
180 160 152 267 4 258 216 12 308 350 95 84 59 299 286 296 291 289 228 214 306 312 303 300 265 264 257 230 234 233 221 234 226 225 226 218 218 218 223 230 233 238 232 239
188 135 253 154 194 288 326 9 337 336 273 35 12 351 356 342 312 283 221 323 301 295 281 272 266 261 242 247 271 265 269 247 224 230 225 222 216 217 219 229 238 245 244 252
77 107 148 117 201 241 93 332 318 299 248 36 353 326 320 331 301 298 290 320 308 295 279 281 274 287 297 292 263 255 260 254 248 239 228 222 216 219 222 219 224 232 243 256
341 336 212 212 224 283 357 344 310 225 285 339 340 305 292 293 275 284 286 283 285 287 286 279 275 277 273 279 283 276 270 261 250 238 234 218 212 216 217 221 217 224 241 253
167 227 228 229 221 246 27 340 48 289 321 305 304 299 293 289 284 280 273 276 286 287 285 276 278 273 265 268 267 265 262 269 249 226 225 227 211 216 225 226 239 244 243 245
79 201 229 192 228 203 164 265 248 306 284 297 299 296 294 293 292 288 294 288 285 279 279 272 268 263 276 263 257 256 265 263 253 243 245 242 244 226 224 233 240 242 229 231
74 9 94 14 283 340 318 287 298 311 302 301 297 300 305 311 297 286 292 288 276 278 271 275 266 269 267 260 253 248 254 253 244 234 232 229 225 231 232 232 233 233 234 235
227 13 336 267 293 321 275 314 307 302 298 292 295 300 300 301 289 285 293 296 278 284 268 275 269 263 262 261 251 263 260 261 262 258 249 244 231 234 235 226 225 228 231 226
197 229 256 267 302 280 282 301 302 299 299 291 296 294 301 300 295 281 291 285 285 281 281 273 267 264 261 261 259 256 256 244 246 258 254 247 241 236 231 239 249 229 233 227